Location: P�rn�nmaa
(61.1833°N, 23.0000°E)
Time: 18:25:34
(UTC+00:00)

Cosmos 1707 Rocket - Pass Details

Date: 08 December 2019
Orbit: 604 x 633 km, 82.5° (Epoch: 16 January)

Event Time Altitude Azimuth Distance (km) Brightness Sun altitude
Rises 16:32:25 0° 210° (SSW) 2,921 7.6 -21.3°
Reaches altitude 10° 16:34:42 10° 216° (SW) 2,019 6.8 -21.6°
Maximum altitude 16:39:04 50° 292° (WNW) 816 4.4 -22.1°
Enters shadow 16:42:32 16° 4° (N) 1,681 5.7 -22.5°
